Location: Esterri de Aneo
(42.6284°N, 1.1223°E)
Time: 21:46:55
(UTC+00:00)

Cosmos 2227 Rocket - Pass Details

Date: 11 December 2025
Orbit: 838 x 844 km, 71.0° (Epoch: 21 January)

Event Time Altitude Azimuth Distance (km) Brightness Sun altitude
Rises 18:37:37 0° 327° (NNW) 3,400 5.6 -24.1°
Reaches altitude 10° 18:40:15 10° 319° (NW) 2,462 5.0 -24.5°
Maximum altitude 18:45:18 35° 255° (WSW) 1,335 3.8 -25.5°
Drops below altitude 10° 18:50:20 10° 192° (SSW) 2,451 4.8 -26.4°
Sets 18:52:57 0° 183° (S) 3,382 5.5 -26.9°
